TimeCDT,TemperatureF,Dew PointF,Humidity,Sea Level PressureIn,VisibilityMPH,Wind Direction,Wind SpeedMPH,Gust SpeedMPH,PrecipitationIn,Events,Conditions,WindDirDegrees,DateUTC
12:54 AM,36.0,26.1,67,30.01,10.0,West,10.4,19.6,N/A,,Overcast,280,2013-03-12 05:54:00
1:54 AM,36.0,26.1,67,30.01,10.0,West,8.1,-,N/A,,Overcast,280,2013-03-12 06:54:00
2:38 AM,35.6,26.6,70,30.00,10.0,West,6.9,-,N/A,,Overcast,280,2013-03-12 07:38:00
2:54 AM,36.0,26.1,67,30.01,10.0,West,5.8,-,N/A,,Overcast,260,2013-03-12 07:54:00
3:54 AM,36.0,25.0,64,30.01,10.0,West,6.9,-,N/A,,Overcast,260,2013-03-12 08:54:00
4:54 AM,34.0,27.0,75,30.03,10.0,West,5.8,-,N/A,,Mostly Cloudy,260,2013-03-12 09:54:00
5:54 AM,33.1,27.0,78,30.04,10.0,WSW,4.6,-,N/A,,Overcast,240,2013-03-12 10:54:00
6:54 AM,33.1,26.1,75,30.06,10.0,West,6.9,-,N/A,,Partly Cloudy,280,2013-03-12 11:54:00
7:54 AM,33.1,26.1,75,30.07,10.0,West,5.8,-,N/A,,Scattered Clouds,270,2013-03-12 12:54:00
8:54 AM,36.0,26.1,67,30.10,10.0,West,10.4,-,N/A,,Clear,270,2013-03-12 13:54:00
9:54 AM,37.9,25.0,60,30.11,10.0,WNW,9.2,-,N/A,,Clear,300,2013-03-12 14:54:00
10:54 AM,39.9,26.1,58,30.12,10.0,Variable,5.8,-,N/A,,Clear,0,2013-03-12 15:54:00
11:54 AM,43.0,27.0,53,30.13,10.0,WSW,8.1,17.3,N/A,,Clear,250,2013-03-12 16:54:00
12:54 PM,46.0,27.0,47,30.12,10.0,West,10.4,17.3,N/A,,Clear,270,2013-03-12 17:54:00
1:54 PM,48.0,26.1,42,30.10,10.0,West,13.8,-,N/A,,Clear,260,2013-03-12 18:54:00
2:54 PM,46.9,25.0,42,30.09,10.0,West,12.7,21.9,N/A,,Clear,270,2013-03-12 19:54:00
3:54 PM,48.9,23.0,36,30.08,10.0,West,11.5,-,N/A,,Clear,270,2013-03-12 20:54:00
4:54 PM,48.9,21.9,35,30.08,10.0,West,13.8,19.6,N/A,,Clear,270,2013-03-12 21:54:00
5:54 PM,48.0,21.9,36,30.09,10.0,WNW,11.5,20.7,N/A,,Clear,290,2013-03-12 22:54:00
6:54 PM,44.1,23.0,43,30.09,10.0,West,8.1,-,N/A,,Clear,270,2013-03-12 23:54:00
7:54 PM,43.0,25.0,49,30.10,10.0,WNW,3.5,-,N/A,,Overcast,290,2013-03-13 00:54:00
8:54 PM,43.0,28.0,56,30.12,10.0,WNW,6.9,-,N/A,,Partly Cloudy,290,2013-03-13 01:54:00
9:54 PM,41.0,28.9,62,30.14,10.0,NW,5.8,-,N/A,,Partly Cloudy,320,2013-03-13 02:54:00
10:54 PM,39.0,28.0,65,30.16,10.0,WNW,9.2,-,N/A,,Scattered Clouds,300,2013-03-13 03:54:00
11:54 PM,37.9,23.0,55,30.17,10.0,WNW,13.8,-,N/A,,Clear,290,2013-03-13 04:54:00